User: anonymous   Login
Location: Pedholt
(56.0260°N, 10.2097°E)
Time: 11:57:34
(UTC+00:00)
Language:

Cosmos 2322 Rocket - Orbit

View from above orbital plane
View from above orbital plane
View from above satellite
View from above satellite

Ground track
Ground track

The orbit data is extracted from the following two-line orbital elements,

1 23705U 95058B   20270.80930838 +.00000165 +00000-0 +10956-3 0  9990
2 23705 071.0243 036.2918 0014744 272.3791 087.5643 14.15141948286317
Epoch (UTC): 26 September 2020 19:25:24
Eccentricity: 0.0014744
inclination: 71.0243°
perigee height: 831 km
apogee height: 852 km
right ascension of ascending node: 36.2918°
argument of perigee: 272.3791°
revolutions per day: 14.15141948
mean anomaly at epoch: 87.5643°
orbit number at epoch: 28631

The dashed part of the orbit path shows where the satellite is in the earth's shadow,  

DLR